Location: Miss�
(46.9484°N, 0.1922°W)
Time: 03:56:39
(UTC+00:00)

ERS-2 - Pass Details

Date: 02 March 2021
Orbit: 492 x 496 km, 98.6° (Epoch: 17 April)

Event Time Altitude Azimuth Distance (km) Brightness Sun altitude
Rises 18:44:02 0° 17° (NNE) 2,594 5.6 -10.4°
Reaches altitude 10° 18:46:09 10° 21° (NNE) 1,707 4.6 -10.7°
Maximum altitude 18:49:47 62° 102° (ESE) 563 2.1 -11.3°
Drops below altitude 10° 18:53:24 10° 185° (S) 1,693 4.8 -12.0°
Sets 18:55:28 0° 188° (S) 2,571 5.8 -12.3°
